User: anonymous   Login
Location: Buttermere
(51.3333°N, 1.5167°W)
Time: 14:32:36
(UTC+00:00)
Language:

USA 186 - Orbit

View from above orbital plane
View from above orbital plane
View from above satellite
View from above satellite

Ground track
Ground track

The orbit data is extracted from the following two-line orbital elements,

1 28888U 05042A   21205.10488020 0.00017000  00000-0  65412-4 0    01
2 28888  96.8801 242.9801 0150955 170.7045 189.2954 15.71718935    08
Epoch (UTC): 24 July 2021 02:31:01
Eccentricity: 0.0150955
inclination: 96.8801°
perigee height: 252 km
apogee height: 455 km
right ascension of ascending node: 242.9801°
argument of perigee: 170.7045°
revolutions per day: 15.71718935
mean anomaly at epoch: 189.2954°
orbit number at epoch: 0

The dashed part of the orbit path shows where the satellite is in the earth's shadow,  

DLR